Погода в деревне Шоткуса

Россия / Санкт-Петербург и Ленинградская область     60°33′24″N   33°15′41″E
темп.,
°C
ветер,
м/с
пор.,
м/с
влажн.,
%
обл.,
%
осадки,
мм/ч
давл.,
гПа
погр.,
м
9 марта, вт
вт900:00−22ссв239723 0.0 101742
03:00−24ссв229741 0.0 101825
06:00−26ссв239738 0.0 102036
09:00−25св249528 0.0 1022161
12:00−19св248615 0.0 1023382
15:00−17св248623 0.0 1024483
18:00−19св23949 0.0 102569
21:00−24всв24955 0.0 102784
10 марта, ср
ср1000:00−26всв22960 0.0 102919
03:00−27в12960 0.0 103019
06:00−27всв12950 0.0 103019
09:00−24в11900 0.0 103234
12:00−16з11773 0.0 1032246
15:00−13сз22756 0.0 1031310
18:00−17зсз12890 0.0 103120
21:00−21с00840 0.0 103120
11 марта, чт
чт1100:00−21ююв11830 0.0 103120
03:00−21ююв22840 0.0 103120
06:00−21ююв23880 0.0 103041
09:00−17ююв38840 0.0 1029243
12:00−10ю411720 0.0 1027531
15:00−7ю510720 0.0 1025699
18:00−8ю4119073 0.0 1022562
21:00−10ю4139285 0.1 1021449
12 марта, пт
пт1200:00−10ю4129254 0.0 1020426
03:00−11ю4119374 0.0 1018391
06:00−12ю51292100 0.0 1016429
09:00−10ю6138696 0.0 1014531
12:00−5ю614790 0.0 1013705
15:00−2ю614770 0.0 1011980
18:00−3ю614780 0.0 10091037
21:00−5ю6148333 0.0 10091029
13 марта, сб
сб1300:00−5ю61487100 0.0 1007922
03:00−5ю61393100 0.4 1006943
06:00−5ю61394100 1.1 1005824
09:00−4ю61293100 1.9 1004589
12:00−2ю51191100 0.1 1004662
15:00+1ю5129799 0.3 1003870
18:00+1ю51198100 0.1 1002651
21:00+1ююз41195100 0.7 1002567